This is the latest recevied weather packets stored in our database for station/object F5MAP-5. If no packets are shown the sender has not sent any weather packets the latest 10 day(s).
| Time | Temp. | Humidity | Pressure | Rain* | Wind** | Luminosity | Snow |
|---|---|---|---|---|---|---|---|
| 1787601133 | 18.33° C | 70% | 1011.4 hPa | 0 mm | - | 0 W/m² | - |
| 1787600533 | 18.33° C | 70% | 1011.6 hPa | 0 mm | - | 0 W/m² | - |
| 1787599933 | 18.89° C | 69% | 1011.7 hPa | 0 mm | - | 0 W/m² | - |
| 1787599333 | 18.89° C | 69% | 1011.7 hPa | 0 mm | - | 0 W/m² | - |
| 1787598733 | 19.44° C | 68% | 1011.7 hPa | 0 mm | - | 0 W/m² | - |
| 1787598133 | 19.44° C | 68% | 1011.9 hPa | 0 mm | - | 0 W/m² | - |
| 1787597533 | 20° C | 67% | 1011.8 hPa | 0 mm | - | 0 W/m² | - |
| 1787596933 | 20° C | 66% | 1011.7 hPa | 0 mm | - | 0 W/m² | - |
| 1787596334 | 20° C | 65% | 1011.9 hPa | 0 mm | - | 0 W/m² | - |
| 1787595733 | 20.56° C | 65% | 1012 hPa | 0 mm | - | 0 W/m² | - |
| 1787595133 | 20.56° C | 65% | 1012.2 hPa | 0 mm | - | 5 W/m² | - |
| 1787594533 | 20.56° C | 64% | 1012.2 hPa | 0 mm | - | 7 W/m² | - |
| 1787593933 | 21.11° C | 64% | 1012.4 hPa | 0 mm | - | 11 W/m² | - |
| 1787593333 | 21.11° C | 64% | 1012.4 hPa | 0 mm | - | 23 W/m² | - |
| 1787592733 | 21.67° C | 64% | 1012.3 hPa | 0 mm | - | 26 W/m² | - |
| 1787592133 | 21.67° C | 63% | 1012.3 hPa | 0 mm | - | 37 W/m² | - |
| 1787591533 | 21.67° C | 62% | 1012.3 hPa | 0 mm | - | 21 W/m² | - |
| 1787590933 | 22.22° C | 61% | 1012.5 hPa | 0 mm | - | 32 W/m² | - |
| 1787590333 | 22.22° C | 60% | 1012.5 hPa | 0 mm | - | 40 W/m² | - |
| 1787589733 | 22.22° C | 60% | 1012.6 hPa | 0 mm | - | 69 W/m² | - |
| 1787589133 | 22.22° C | 59% | 1012.7 hPa | 0 mm | - | 81 W/m² | - |
| 1787588533 | 22.78° C | 58% | 1012.9 hPa | 0 mm | - | 90 W/m² | - |
| 1787587933 | 22.78° C | 57% | 1013.1 hPa | 0 mm | - | 93 W/m² | - |
| 1787587333 | 23.33° C | 57% | 1013.3 hPa | 0 mm | - | 107 W/m² | - |
| 1787586733 | 23.33° C | 57% | 1013.6 hPa | 0 mm | - | 88 W/m² | - |
* Rain latest hour (hover to see other rain measurements)
** Current wind speed in m/s (hover to see current wind gust speed)